DELTA 1 DEB, 10714

Orbit data source: Space-Track

DELTA 1 DEB, 10714 is space debris in LEO originally from a launch on Thu, 29 Jul 1976 UTC launched from the Air Force Western Test Range (AFWTR). Debris objects in space refer to the collection of defunct objects orbiting the Earth. Examples of debris include non-operational satellites, rocket bodies, and fragments generated from explosions, collisions, or faulty payload assembly.

Loading next visibility...
Identifier
10714, 1976-077AK
Orbit
LEO
Country
Flag of USUS
Related business
Manufacturer
Unknown
Mission
Spacecraft
Bus & Motor
Unknown
Mass
Unknown
Launch date (UTC)
1976-07-29 (50 years ago)
Launch vehicle
Unknown
Launch site
Air Force Western Test Range (AFWTR)
Object type
Payload
Rocket body
Debris
Shape & HBR
Unknown shape, 0.1 m
Radar Cross Section
Medium (>0.1 m² and <1 m²)

Expand to show TLE details & history
Last TLE update: 3 days ago

TLE from 3 days ago
0 DELTA 1 DEB
1 10714U 76077AK  26170.68724894  .00000410  00000-0  62101-2 0  9991
2 10714 103.3704  68.7171 0600784 333.7195  46.5339 11.54711720 93336
Epoch: 2026-06-19T16:29Z
TLE epoch observation values (Epoch: 2026-06-19T16:29:38.308Z)
Latitude
24.80415°
Longitude
-92.88076°
Altitude
1,567.722 km
Speed
7.224 km/s
True Right ascension
04h 09m 45s
True Declination
24° 41' 12"
Sunlit
Object was in daylight at epoch
Visualization orbit readout
Latitude
Unknown
Longitude
Unknown
Altitude
Unknown
Speed
Unknown
Apparent Right ascension
Unknown
Apparent Declination
Unknown
Sunlit
N/A
Visualization observer readout
Local Sidereal Time
00:55:23
Azimuth
Unknown
Elevation
Unknown
Doppler factor
Unknown
Orbital elements
Apogee altitude
2,384.597 km
Perigee altitude
1,391.367 km
Semi-major axis
8,266.119 km
Eccentricity
0.06008
Inclination
103.3704°
RAAN
68.7171°
Arg. of periapsis
333.7195°
True anomaly
51.79464°
Mean anomaly
46.5339°
Eccentric anomaly
49.13719°
Mean motion
2.88796 °/min
Orbital period
124.66 mins
BSTAR
0.0062101
Loading maneuver chart data...
Computing Atmospheric mass density...
Loading historical data...
Loading historical data...
Loading historical data...
Loading historical data...
Loading historical data...
Loading historical data...
Loading historical data...

Documentation

Showing up to 5 results
|